DAL2950 KBWI-KATL

Flight info

Callsign DAL2950
Flight time 1h 37m
Altitude 34000
Route TERPZ8 FLASK OZZZI2
Aircraft A321/M-SDE3FGHIRWY/LB1

Departure

Time 2026-05-07 12:33
Airport Baltimore/Washington International Thurgood Marshall Airport (KBWI)

Arrival

Time 2026-05-07 14:10
Airport Hartsfield Jackson Atlanta International Airport (KATL)
Time Latitude Longitude Altitude Speed Heading
2026-05-07 12:09 39.17846 -76.66491 158 ft 0 kts 40°
2026-05-07 12:22 39.17845 -76.66492 158 ft 2 kts 40°
2026-05-07 12:22 39.17831 -76.66508 158 ft 3 kts 40°
2026-05-07 12:22 39.17817 -76.66524 158 ft 3 kts 40°
2026-05-07 12:23 39.17804 -76.66541 158 ft 3 kts 81°
2026-05-07 12:23 39.17806 -76.66564 158 ft 3 kts 142°
2026-05-07 12:23 39.17824 -76.66572 158 ft 3 kts 193°
2026-05-07 12:23 39.17842 -76.66563 159 ft 3 kts 212°
2026-05-07 12:24 39.17845 -76.66561 159 ft 0 kts 213°
2026-05-07 12:27 39.17843 -76.66563 159 ft 1 kts 213°
2026-05-07 12:27 39.17825 -76.66562 158 ft 5 kts 172°
2026-05-07 12:28 39.17796 -76.66546 158 ft 0 kts 148°
2026-05-07 12:29 39.17770 -76.66519 157 ft 7 kts 133°
2026-05-07 12:29 39.17744 -76.66468 157 ft 9 kts 122°
2026-05-07 12:29 39.17744 -76.66380 156 ft 14 kts 44°
2026-05-07 12:30 39.17766 -76.66271 155 ft 14 kts 114°
2026-05-07 12:30 39.17720 -76.66151 153 ft 16 kts 116°
2026-05-07 12:30 39.17666 -76.66011 152 ft 18 kts 117°
2026-05-07 12:30 39.17609 -76.65864 152 ft 19 kts 116°
2026-05-07 12:31 39.17554 -76.65721 153 ft 17 kts 116°
2026-05-07 12:31 39.17468 -76.65663 156 ft 13 kts 174°
2026-05-07 12:31 39.17420 -76.65593 156 ft 10 kts 110°
2026-05-07 12:31 39.17384 -76.65533 157 ft 7 kts 154°
2026-05-07 12:32 39.17335 -76.65529 157 ft 8 kts 187°
2026-05-07 12:32 39.17286 -76.65579 156 ft 12 kts 248°
2026-05-07 12:32 39.17285 -76.65630 154 ft 1 kts 275°
2026-05-07 12:32 39.17302 -76.65897 154 ft 65 kts 275°
2026-05-07 12:33 39.17430 -76.68135 355 ft 151 kts 275°
2026-05-07 12:33 39.17499 -76.69504 956 ft 154 kts 277°
2026-05-07 12:33 39.17566 -76.70888 1523 ft 155 kts 279°
2026-05-07 12:34 39.17641 -76.72295 1982 ft 163 kts 279°
2026-05-07 12:34 39.17735 -76.73849 2193 ft 183 kts 280°
2026-05-07 12:34 39.17807 -76.75022 2331 ft 195 kts 280°
2026-05-07 12:34 39.17986 -76.76853 2521 ft 212 kts 287°
2026-05-07 12:35 39.18349 -76.78797 2657 ft 236 kts 290°
2026-05-07 12:35 39.18793 -76.80903 3191 ft 247 kts 290°
2026-05-07 12:35 39.19239 -76.83018 4039 ft 247 kts 288°
2026-05-07 12:35 39.19674 -76.85154 4949 ft 245 kts 286°
2026-05-07 12:36 39.20117 -76.87372 5772 ft 246 kts 283°
2026-05-07 12:36 39.20546 -76.89554 6542 ft 248 kts 281°
2026-05-07 12:36 39.20970 -76.91732 7291 ft 248 kts 281°
2026-05-07 12:36 39.21390 -76.93893 8024 ft 249 kts 280°
2026-05-07 12:37 39.21817 -76.96086 8786 ft 249 kts 279°
2026-05-07 12:37 39.22019 -76.98311 9530 ft 245 kts 268°
2026-05-07 12:37 39.22049 -77.00510 10237 ft 247 kts 268°
2026-05-07 12:37 39.22078 -77.02836 10437 ft 267 kts 268°
2026-05-07 12:38 39.22107 -77.05305 10560 ft 287 kts 268°
2026-05-07 12:38 39.22143 -77.08061 10717 ft 306 kts 268°
2026-05-07 12:38 39.21982 -77.10773 11166 ft 310 kts 256°
2026-05-07 12:38 39.21170 -77.13509 11824 ft 312 kts 242°
2026-05-07 12:39 39.19821 -77.15728 12483 ft 320 kts 228°
2026-05-07 12:39 39.17978 -77.17465 13151 ft 327 kts 219°
2026-05-07 12:39 39.16062 -77.19050 13806 ft 328 kts 219°
2026-05-07 12:39 39.14110 -77.20662 14386 ft 330 kts 220°
2026-05-07 12:40 39.12175 -77.22258 14968 ft 330 kts 220°
2026-05-07 12:40 39.10236 -77.23858 15534 ft 331 kts 220°
2026-05-07 12:40 39.08223 -77.25485 16107 ft 333 kts 218°
2026-05-07 12:40 39.06179 -77.26996 16674 ft 336 kts 217°
2026-05-07 12:41 39.04119 -77.28431 17234 ft 337 kts 216°
2026-05-07 12:41 39.02687 -77.29407 17599 ft 338 kts 216°
2026-05-07 12:41 38.99935 -77.31279 18310 ft 339 kts 217°
2026-05-07 12:41 38.98554 -77.32226 18611 ft 339 kts 217°
2026-05-07 12:42 38.96444 -77.33682 19062 ft 340 kts 217°
2026-05-07 12:42 38.94323 -77.35152 19493 ft 342 kts 217°
2026-05-07 12:42 38.92229 -77.36609 19927 ft 343 kts 217°
2026-05-07 12:42 38.90133 -77.38074 20365 ft 343 kts 218°
2026-05-07 12:43 38.88028 -77.39544 20758 ft 345 kts 217°
2026-05-07 12:43 38.85885 -77.41037 21188 ft 347 kts 217°
2026-05-07 12:43 38.83762 -77.42514 21608 ft 348 kts 218°
2026-05-07 12:43 38.81625 -77.44003 22042 ft 349 kts 218°
2026-05-07 12:44 38.79492 -77.45493 22466 ft 351 kts 218°
2026-05-07 12:44 38.77348 -77.46990 22875 ft 352 kts 218°
2026-05-07 12:44 38.75188 -77.48494 23277 ft 354 kts 218°
2026-05-07 12:44 38.73151 -77.50197 23652 ft 346 kts 226°
2026-05-07 12:45 38.71441 -77.52311 23964 ft 340 kts 234°
2026-05-07 12:45 38.69874 -77.54592 24299 ft 341 kts 234°
2026-05-07 12:45 38.68303 -77.56872 24576 ft 342 kts 233°
2026-05-07 12:45 38.66720 -77.59166 24821 ft 345 kts 233°
2026-05-07 12:46 38.65104 -77.61507 25182 ft 346 kts 234°
2026-05-07 12:46 38.63511 -77.63813 25518 ft 347 kts 234°
2026-05-07 12:46 38.61905 -77.66132 25837 ft 348 kts 234°
2026-05-07 12:46 38.60300 -77.68446 26141 ft 349 kts 234°
2026-05-07 12:47 38.58689 -77.70768 26447 ft 350 kts 234°
2026-05-07 12:47 38.57074 -77.73097 26736 ft 351 kts 234°
2026-05-07 12:47 38.55454 -77.75431 27025 ft 352 kts 234°
2026-05-07 12:47 38.53828 -77.77770 27317 ft 353 kts 234°
2026-05-07 12:48 38.52204 -77.80106 27591 ft 354 kts 233°
2026-05-07 12:48 38.50461 -77.82583 27912 ft 355 kts 233°
2026-05-07 12:48 38.48795 -77.84925 28127 ft 356 kts 233°
2026-05-07 12:48 38.47118 -77.87272 28347 ft 359 kts 233°
2026-05-07 12:49 38.45432 -77.89630 28622 ft 359 kts 233°
2026-05-07 12:49 38.43880 -77.92146 28985 ft 354 kts 238°
2026-05-07 12:49 38.42467 -77.94701 29353 ft 352 kts 238°
2026-05-07 12:49 38.41059 -77.97249 29770 ft 350 kts 238°
2026-05-07 12:50 38.39662 -77.99773 30132 ft 347 kts 238°
2026-05-07 12:50 38.38274 -78.02279 30452 ft 345 kts 239°
2026-05-07 12:50 38.36891 -78.04775 30763 ft 344 kts 239°
2026-05-07 12:50 38.35490 -78.07297 31076 ft 342 kts 239°
2026-05-07 12:51 38.34119 -78.09759 31380 ft 341 kts 239°
2026-05-07 12:51 38.32749 -78.12216 31683 ft 340 kts 239°
2026-05-07 12:51 38.31385 -78.14664 31987 ft 338 kts 239°
2026-05-07 12:51 38.30026 -78.17106 32295 ft 337 kts 240°
2026-05-07 12:52 38.28675 -78.19535 32512 ft 336 kts 240°
2026-05-07 12:52 38.27322 -78.21968 32751 ft 336 kts 240°
2026-05-07 12:52 38.25969 -78.24394 33030 ft 336 kts 240°
2026-05-07 12:52 38.24617 -78.26812 33317 ft 335 kts 240°
2026-05-07 12:53 38.23269 -78.29218 33619 ft 334 kts 240°
2026-05-07 12:53 38.21923 -78.31615 33888 ft 333 kts 241°
2026-05-07 12:53 38.19246 -78.36382 33980 ft 329 kts 241°
2026-05-07 12:54 38.16579 -78.41092 33980 ft 328 kts 240°
2026-05-07 12:54 38.13807 -78.45753 33980 ft 328 kts 239°
2026-05-07 12:55 38.11030 -78.50360 33979 ft 329 kts 239°
2026-05-07 12:55 38.08255 -78.54973 33941 ft 329 kts 239°
2026-05-07 12:56 38.05474 -78.59605 33959 ft 330 kts 239°
2026-05-07 12:56 38.02685 -78.64254 33953 ft 331 kts 239°
2026-05-07 12:57 37.99880 -78.68929 33997 ft 331 kts 239°
2026-05-07 12:57 37.97084 -78.73562 33988 ft 330 kts 239°
2026-05-07 12:58 37.94297 -78.78175 33974 ft 329 kts 239°
2026-05-07 12:58 37.91516 -78.82783 33969 ft 329 kts 239°
2026-05-07 12:59 37.88741 -78.87380 33959 ft 328 kts 239°
2026-05-07 12:59 37.85963 -78.91968 33960 ft 328 kts 239°
2026-05-07 13:00 37.83186 -78.96550 33944 ft 328 kts 239°
2026-05-07 13:00 37.80406 -79.01134 33946 ft 328 kts 239°
2026-05-07 13:01 37.77631 -79.05707 33954 ft 328 kts 239°
2026-05-07 13:01 37.74851 -79.10271 34002 ft 327 kts 239°
2026-05-07 13:02 37.72071 -79.14825 34006 ft 327 kts 239°
2026-05-07 13:02 37.69745 -79.18628 34004 ft 326 kts 239°
2026-05-07 13:03 37.66983 -79.23209 33986 ft 330 kts 239°
2026-05-07 13:03 37.64241 -79.27861 33989 ft 330 kts 239°
2026-05-07 13:04 37.61501 -79.32508 33995 ft 330 kts 239°
2026-05-07 13:04 37.58747 -79.37147 33980 ft 330 kts 239°
2026-05-07 13:05 37.55992 -79.41776 33934 ft 330 kts 239°
2026-05-07 13:05 37.53239 -79.46401 33963 ft 330 kts 239°
2026-05-07 13:06 37.50467 -79.51050 33966 ft 330 kts 239°
2026-05-07 13:06 37.47692 -79.55697 33924 ft 330 kts 239°
2026-05-07 13:07 37.44903 -79.60361 33931 ft 330 kts 239°
2026-05-07 13:07 37.42112 -79.65010 33927 ft 329 kts 239°
2026-05-07 13:08 37.39332 -79.69640 33949 ft 330 kts 239°
2026-05-07 13:08 37.36564 -79.74248 33958 ft 330 kts 239°
2026-05-07 13:09 37.33780 -79.78877 33966 ft 330 kts 239°
2026-05-07 13:09 37.31011 -79.83476 33978 ft 330 kts 239°
2026-05-07 13:10 37.28235 -79.88081 33981 ft 330 kts 239°
2026-05-07 13:10 37.25442 -79.92711 33919 ft 335 kts 239°
2026-05-07 13:11 37.22624 -79.97374 33928 ft 335 kts 239°
2026-05-07 13:11 37.19803 -80.02017 33942 ft 334 kts 239°
2026-05-07 13:12 37.16991 -80.06656 33956 ft 334 kts 239°
2026-05-07 13:12 37.14174 -80.11293 33962 ft 334 kts 239°
2026-05-07 13:13 37.11337 -80.15951 33968 ft 334 kts 239°
2026-05-07 13:13 37.08520 -80.20578 34006 ft 334 kts 239°
2026-05-07 13:14 37.05704 -80.25194 33948 ft 333 kts 239°
2026-05-07 13:14 37.02878 -80.29812 33953 ft 334 kts 239°
2026-05-07 13:15 36.99795 -80.34177 33960 ft 340 kts 233°
2026-05-07 13:15 36.96442 -80.38468 33959 ft 340 kts 233°
2026-05-07 13:16 36.93134 -80.42704 33952 ft 340 kts 233°
2026-05-07 13:16 36.89824 -80.46936 33943 ft 340 kts 233°
2026-05-07 13:17 36.86512 -80.51160 33937 ft 340 kts 233°
2026-05-07 13:17 36.83192 -80.55396 33936 ft 344 kts 233°
2026-05-07 13:18 36.79823 -80.59689 33946 ft 343 kts 233°
2026-05-07 13:18 36.76476 -80.63938 33965 ft 343 kts 233°
2026-05-07 13:19 36.73139 -80.68175 33970 ft 342 kts 233°
2026-05-07 13:19 36.69801 -80.72409 33966 ft 342 kts 233°
2026-05-07 13:20 36.66462 -80.76637 33968 ft 342 kts 233°
2026-05-07 13:20 36.63124 -80.80863 33881 ft 342 kts 233°
2026-05-07 13:21 36.60308 -80.84424 33936 ft 346 kts 233°
2026-05-07 13:21 36.56809 -80.88829 33937 ft 346 kts 233°
2026-05-07 13:22 36.53382 -80.93139 33940 ft 345 kts 233°
2026-05-07 13:22 36.49989 -80.97406 33938 ft 344 kts 233°
2026-05-07 13:23 36.46577 -81.01698 33946 ft 344 kts 233°
2026-05-07 13:23 36.43168 -81.05973 33951 ft 344 kts 233°
2026-05-07 13:24 36.39802 -81.10196 33913 ft 344 kts 233°
2026-05-07 13:24 36.36406 -81.14446 33928 ft 344 kts 233°
2026-05-07 13:25 36.33026 -81.18663 33938 ft 345 kts 233°
2026-05-07 13:25 36.29646 -81.22881 33942 ft 344 kts 233°
2026-05-07 13:26 36.26250 -81.27134 33945 ft 345 kts 233°
2026-05-07 13:26 36.22873 -81.31352 33958 ft 344 kts 233°
2026-05-07 13:27 36.19497 -81.35562 33946 ft 344 kts 233°
2026-05-07 13:27 36.16124 -81.39763 33878 ft 344 kts 233°
2026-05-07 13:28 36.12603 -81.44141 33873 ft 345 kts 233°
2026-05-07 13:28 36.09187 -81.48376 33862 ft 346 kts 233°
2026-05-07 13:29 36.06360 -81.51878 33866 ft 346 kts 233°
2026-05-07 13:29 36.02961 -81.56092 33880 ft 346 kts 233°
2026-05-07 13:30 35.99538 -81.60325 33881 ft 346 kts 233°
2026-05-07 13:30 35.96137 -81.64525 33872 ft 345 kts 233°
2026-05-07 13:31 35.92716 -81.68746 33857 ft 346 kts 233°
2026-05-07 13:31 35.89302 -81.72946 33867 ft 347 kts 233°
2026-05-07 13:32 35.85885 -81.77145 33936 ft 347 kts 233°
2026-05-07 13:32 35.82433 -81.81376 33935 ft 347 kts 233°
2026-05-07 13:33 35.79004 -81.85576 33926 ft 347 kts 232°
2026-05-07 13:33 35.75558 -81.89741 33929 ft 349 kts 232°
2026-05-07 13:34 35.70327 -81.95992 33904 ft 346 kts 232°
2026-05-07 13:35 35.66871 -82.00117 33901 ft 346 kts 232°
2026-05-07 13:35 35.63362 -82.04298 33905 ft 347 kts 232°
2026-05-07 13:36 35.59896 -82.08426 33910 ft 347 kts 232°
2026-05-07 13:36 35.56433 -82.12555 33914 ft 347 kts 232°
2026-05-07 13:37 35.52955 -82.16696 33919 ft 349 kts 232°
2026-05-07 13:37 35.49447 -82.20864 33875 ft 348 kts 231°
2026-05-07 13:38 35.45965 -82.24988 33871 ft 348 kts 231°
2026-05-07 13:38 35.42470 -82.29138 33875 ft 350 kts 232°
2026-05-07 13:39 35.39210 -82.33126 33876 ft 349 kts 233°
2026-05-07 13:39 35.35797 -82.37414 33875 ft 349 kts 233°
2026-05-07 13:40 35.32330 -82.41743 33916 ft 349 kts 233°
2026-05-07 13:40 35.28901 -82.45989 33913 ft 348 kts 233°
2026-05-07 13:41 35.25499 -82.50191 33896 ft 347 kts 232°
2026-05-07 13:41 35.22093 -82.54398 33893 ft 349 kts 232°
2026-05-07 13:42 35.18672 -82.58624 33889 ft 350 kts 233°
2026-05-07 13:42 35.15248 -82.62856 33872 ft 350 kts 232°
2026-05-07 13:43 35.11738 -82.67046 33885 ft 351 kts 232°
2026-05-07 13:43 35.08224 -82.71184 33898 ft 351 kts 231°
2026-05-07 13:44 35.04710 -82.75329 33904 ft 351 kts 231°
2026-05-07 13:44 35.01177 -82.79520 33888 ft 352 kts 231°
2026-05-07 13:45 34.97656 -82.83698 33892 ft 354 kts 231°
2026-05-07 13:45 34.94100 -82.87902 33903 ft 354 kts 231°
2026-05-07 13:46 34.90520 -82.92089 33899 ft 354 kts 231°
2026-05-07 13:46 34.86944 -82.96222 33884 ft 354 kts 231°
2026-05-07 13:46 34.85154 -82.98286 33625 ft 355 kts 231°
2026-05-07 13:47 34.83360 -83.00356 33359 ft 356 kts 231°
2026-05-07 13:47 34.81538 -83.02462 33107 ft 357 kts 231°
2026-05-07 13:47 34.79730 -83.04550 32851 ft 359 kts 231°
2026-05-07 13:47 34.77915 -83.06649 32556 ft 362 kts 230°
2026-05-07 13:48 34.76078 -83.08767 32307 ft 365 kts 230°
2026-05-07 13:48 34.74230 -83.10896 31862 ft 367 kts 230°
2026-05-07 13:48 34.72328 -83.13089 30903 ft 375 kts 230°
2026-05-07 13:48 34.70418 -83.15290 29995 ft 382 kts 230°
2026-05-07 13:49 34.68476 -83.17530 28914 ft 389 kts 230°
2026-05-07 13:49 34.66505 -83.19802 28134 ft 389 kts 230°
2026-05-07 13:49 34.64544 -83.22052 27505 ft 386 kts 230°
2026-05-07 13:49 34.62572 -83.24307 26854 ft 383 kts 230°
2026-05-07 13:50 34.60640 -83.26513 26221 ft 380 kts 230°
2026-05-07 13:50 34.58719 -83.28705 25605 ft 378 kts 230°
2026-05-07 13:50 34.56808 -83.30888 24983 ft 376 kts 230°
2026-05-07 13:50 34.55526 -83.32356 24575 ft 375 kts 230°
2026-05-07 13:51 34.53636 -83.34527 23963 ft 373 kts 229°
2026-05-07 13:51 34.51760 -83.36692 23340 ft 372 kts 229°
2026-05-07 13:51 34.49892 -83.38851 22696 ft 369 kts 229°
2026-05-07 13:51 34.48026 -83.41004 22145 ft 363 kts 230°
2026-05-07 13:52 34.46132 -83.43179 21582 ft 359 kts 230°
2026-05-07 13:52 34.44097 -83.45506 20992 ft 353 kts 230°
2026-05-07 13:52 34.42518 -83.47310 20564 ft 349 kts 230°
2026-05-07 13:52 34.40765 -83.49313 20105 ft 345 kts 230°
2026-05-07 13:53 34.39034 -83.51294 19652 ft 341 kts 230°
2026-05-07 13:53 34.37298 -83.53282 19202 ft 337 kts 231°
2026-05-07 13:53 34.35606 -83.55222 18769 ft 334 kts 229°
2026-05-07 13:53 34.33928 -83.57151 18320 ft 332 kts 229°
2026-05-07 13:54 34.32257 -83.59062 17881 ft 329 kts 229°
2026-05-07 13:54 34.30625 -83.60924 17420 ft 327 kts 230°
2026-05-07 13:54 34.28951 -83.62830 16998 ft 322 kts 231°
2026-05-07 13:54 34.27305 -83.64651 16552 ft 320 kts 230°
2026-05-07 13:55 34.25644 -83.66431 16107 ft 318 kts 229°
2026-05-07 13:55 34.23989 -83.68182 15653 ft 316 kts 229°
2026-05-07 13:55 34.22317 -83.69943 15218 ft 314 kts 229°
2026-05-07 13:55 34.20672 -83.71672 14763 ft 313 kts 228°
2026-05-07 13:56 34.19079 -83.73350 14317 ft 312 kts 228°
2026-05-07 13:56 34.17407 -83.75117 13842 ft 311 kts 228°
2026-05-07 13:56 34.15778 -83.76843 13338 ft 311 kts 228°
2026-05-07 13:56 34.14057 -83.78672 12833 ft 310 kts 228°
2026-05-07 13:57 34.12490 -83.80338 12371 ft 308 kts 227°
2026-05-07 13:57 34.10903 -83.82022 11903 ft 307 kts 227°
2026-05-07 13:57 34.09168 -83.83863 11367 ft 305 kts 227°
2026-05-07 13:57 34.07725 -83.85403 10947 ft 305 kts 227°
2026-05-07 13:58 34.06150 -83.87092 10668 ft 299 kts 227°
2026-05-07 13:58 34.04626 -83.88720 10548 ft 287 kts 227°
2026-05-07 13:58 34.03067 -83.90386 10423 ft 275 kts 228°
2026-05-07 13:58 34.01659 -83.91893 10281 ft 265 kts 228°
2026-05-07 13:59 34.00385 -83.93258 10111 ft 261 kts 228°
2026-05-07 13:59 33.99014 -83.94729 9926 ft 260 kts 228°
2026-05-07 13:59 33.97552 -83.95996 9798 ft 268 kts 214°
2026-05-07 13:59 33.95714 -83.96693 9655 ft 281 kts 196°
2026-05-07 14:00 33.93570 -83.96724 9257 ft 287 kts 186°
2026-05-07 14:00 33.91738 -83.96645 8894 ft 285 kts 187°
2026-05-07 14:00 33.89748 -83.96544 8819 ft 283 kts 186°
2026-05-07 14:00 33.87720 -83.96446 8755 ft 284 kts 186°
2026-05-07 14:01 33.85799 -83.96357 8645 ft 283 kts 186°
2026-05-07 14:01 33.83864 -83.96272 8521 ft 282 kts 186°
2026-05-07 14:01 33.81880 -83.96188 8400 ft 282 kts 186°
2026-05-07 14:01 33.79924 -83.96106 8263 ft 281 kts 186°
2026-05-07 14:02 33.77939 -83.96022 8152 ft 282 kts 186°
2026-05-07 14:02 33.76020 -83.96040 8031 ft 276 kts 194°
2026-05-07 14:02 33.74180 -83.96534 7819 ft 267 kts 207°
2026-05-07 14:02 33.72484 -83.97371 7541 ft 262 kts 210°
2026-05-07 14:03 33.70797 -83.98216 7268 ft 261 kts 209°
2026-05-07 14:03 33.69123 -83.99047 7005 ft 260 kts 209°
2026-05-07 14:03 33.67457 -83.99942 6738 ft 251 kts 217°
2026-05-07 14:03 33.66166 -84.01232 6506 ft 247 kts 233°
2026-05-07 14:04 33.65276 -84.02990 6233 ft 248 kts 250°
2026-05-07 14:04 33.64906 -84.04992 5962 ft 243 kts 265°
2026-05-07 14:04 33.64876 -84.06485 5783 ft 239 kts 267°
2026-05-07 14:04 33.64900 -84.08515 5539 ft 233 kts 268°
2026-05-07 14:05 33.64914 -84.10438 5305 ft 227 kts 268°
2026-05-07 14:05 33.64919 -84.12321 5076 ft 225 kts 269°
2026-05-07 14:05 33.64925 -84.14206 4826 ft 226 kts 268°
2026-05-07 14:05 33.64928 -84.16075 4564 ft 221 kts 268°
2026-05-07 14:06 33.64932 -84.17942 4327 ft 214 kts 268°
2026-05-07 14:06 33.64935 -84.19698 4109 ft 213 kts 268°
2026-05-07 14:06 33.64938 -84.21441 3941 ft 203 kts 268°
2026-05-07 14:06 33.64940 -84.23100 3814 ft 195 kts 268°
2026-05-07 14:07 33.64943 -84.24772 3604 ft 181 kts 269°
2026-05-07 14:07 33.64945 -84.26243 3374 ft 168 kts 270°
2026-05-07 14:07 33.64946 -84.27623 3186 ft 155 kts 269°
2026-05-07 14:07 33.64948 -84.28874 2981 ft 149 kts 268°
2026-05-07 14:08 33.64949 -84.30145 2757 ft 153 kts 272°
2026-05-07 14:08 33.64950 -84.31426 2567 ft 147 kts 275°
2026-05-07 14:08 33.64949 -84.32615 2372 ft 145 kts 275°
2026-05-07 14:08 33.64950 -84.33844 2170 ft 145 kts 274°
2026-05-07 14:09 33.64951 -84.35116 1978 ft 146 kts 275°
2026-05-07 14:09 33.64952 -84.36279 1802 ft 147 kts 275°
2026-05-07 14:09 33.64955 -84.37505 1600 ft 148 kts 273°
2026-05-07 14:09 33.64954 -84.38351 1462 ft 148 kts 274°
2026-05-07 14:10 33.64963 -84.40017 1218 ft 149 kts 272°
2026-05-07 14:10 33.64956 -84.41281 1029 ft 146 kts 272°
2026-05-07 14:10 33.64960 -84.42189 1007 ft 116 kts 272°
2026-05-07 14:10 33.64961 -84.42897 1006 ft 47 kts 270°
2026-05-07 14:11 33.64912 -84.43205 1007 ft 25 kts 248°
2026-05-07 14:11 33.64852 -84.43389 1006 ft 22 kts 253°
2026-05-07 14:11 33.64846 -84.43559 1007 ft 19 kts 271°
2026-05-07 14:11 33.64846 -84.43742 1006 ft 25 kts 268°
2026-05-07 14:12 33.64793 -84.43947 1006 ft 25 kts 253°
2026-05-07 14:12 33.64785 -84.44140 1006 ft 22 kts 270°
2026-05-07 14:12 33.64752 -84.44298 1006 ft 17 kts 224°
2026-05-07 14:12 33.64657 -84.44332 1006 ft 14 kts 172°
2026-05-07 14:13 33.64581 -84.44260 1006 ft 14 kts 108°
2026-05-07 14:13 33.64557 -84.44133 1006 ft 16 kts 139°
2026-05-07 14:13 33.64425 -84.44118 1006 ft 22 kts 179°
2026-05-07 14:13 33.64264 -84.44111 1006 ft 20 kts 179°
2026-05-07 14:14 33.64168 -84.44052 1006 ft 14 kts 108°
2026-05-07 14:14 33.64164 -84.43967 1006 ft 0 kts 91°